Tracking 18032 objects as of 27-March-2017
HD Live streaming from Space Station
objects crossing your sky now

OPS 6432

Track OPS 6432 now!
10-day predictions
OPS 6432 is classified as:


NORAD ID: 14112
Int'l Code: 1983-056A
Perigee: 393.2 km
Apogee: 1,737.7 km
Inclination: 63.3 °
Period: 106.4 minutes
Semi major axis: 7436 km
RCS: Unknown
Launch date: June 9, 1983
Source: United States (US)
Launch site: AIR FORCE WESTERN TEST RANGE (AFWTR)
Your satellite tracking list
Your tracking list is empty





NASA's NSSDC Master Catalog

Two Line Element Set (TLE):
1 14112U 83056A   17049.74211883 0.00000900  00000-0  72777-4 0    02
2 14112  63.3020  29.9553 0903949  67.7191 292.2809 13.53796539    06
Source of the keplerian elements: McCants